Time,TemperatureF,DewpointF,PressureIn,WindDirection,WindDirectionDegrees,WindSpeedMPH,WindSpeedGustMPH,Humidity,HourlyPrecipIn,Conditions,Clouds,dailyrainin,SolarRadiationWatts/m^2,SoftwareType,DateUTC
2013-11-14 00:04:00,33.9,23.0,30.20,SSE,165,0.0,0.0,64,0.00,,,0.00,0,Wunderground v.1.15,2013-11-14 07:04:00,
2013-11-14 00:10:00,33.8,22.9,30.20,SSE,165,0.0,0.0,64,0.00,,,0.00,0,Wunderground v.1.15,2013-11-14 07:10:00,
2013-11-14 00:16:00,33.7,22.8,30.20,SSE,165,0.0,0.0,64,0.00,,,0.00,0,Wunderground v.1.15,2013-11-14 07:16:00,
2013-11-14 00:22:00,33.7,22.4,30.20,SSE,165,0.0,1.0,63,0.00,,,0.00,0,Wunderground v.1.15,2013-11-14 07:22:00,
2013-11-14 00:28:00,33.4,22.5,30.20,SSE,165,0.0,1.0,64,0.00,,,0.00,0,Wunderground v.1.15,2013-11-14 07:28:00,
2013-11-14 00:34:00,33.2,22.7,30.19,SE,141,1.0,10.0,65,0.00,,,0.00,0,Wunderground v.1.15,2013-11-14 07:34:00,
2013-11-14 00:40:00,33.4,23.6,30.19,SSE,148,4.0,7.0,67,0.00,,,0.00,0,Wunderground v.1.15,2013-11-14 07:40:00,
2013-11-14 00:46:00,34.0,23.8,30.18,SE,134,6.0,7.0,66,0.00,,,0.00,0,Wunderground v.1.15,2013-11-14 07:46:00,
2013-11-14 00:52:00,34.6,24.0,30.19,SE,139,6.0,6.0,65,0.00,,,0.00,0,Wunderground v.1.15,2013-11-14 07:52:00,
2013-11-14 00:58:00,35.1,24.1,30.18,SE,127,6.0,7.0,64,0.00,,,0.00,0,Wunderground v.1.15,2013-11-14 07:58:00,
2013-11-14 01:04:00,35.6,23.9,30.18,SE,140,6.0,6.0,62,0.00,,,0.00,0,Wunderground v.1.15,2013-11-14 08:04:00,
2013-11-14 01:10:00,35.9,24.1,30.18,SE,135,5.0,5.0,62,0.00,,,0.00,0,Wunderground v.1.15,2013-11-14 08:10:00,
2013-11-14 01:18:00,36.0,24.2,30.17,SSE,148,5.0,5.0,62,0.00,,,0.00,0,Wunderground v.1.15,2013-11-14 08:18:00,
2013-11-14 01:24:00,36.0,23.8,30.17,SE,141,4.0,5.0,61,0.00,,,0.00,0,Wunderground v.1.15,2013-11-14 08:24:00,
2013-11-14 01:30:00,36.0,23.8,30.17,SE,125,5.0,7.0,61,0.00,,,0.00,0,Wunderground v.1.15,2013-11-14 08:30:00,
2013-11-14 01:36:00,36.0,23.8,30.16,SE,136,5.0,7.0,61,0.00,,,0.00,0,Wunderground v.1.15,2013-11-14 08:36:00,
2013-11-14 01:42:00,35.9,24.1,30.16,SSE,161,4.0,5.0,62,0.00,,,0.00,0,Wunderground v.1.15,2013-11-14 08:42:00,
2013-11-14 01:48:00,35.8,23.7,30.16,SSE,147,2.0,6.0,61,0.00,,,0.00,0,Wunderground v.1.15,2013-11-14 08:48:00,
2013-11-14 01:54:00,35.6,23.9,30.15,SE,143,4.0,10.0,62,0.00,,,0.00,0,Wunderground v.1.15,2013-11-14 08:54:00,
2013-11-14 02:00:00,35.6,23.9,30.15,ESE,121,8.0,13.0,62,0.00,,,0.00,0,Wunderground v.1.15,2013-11-14 09:00:00,
2013-11-14 02:06:00,35.7,23.6,30.14,SE,140,9.0,13.0,61,0.00,,,0.00,0,Wunderground v.1.15,2013-11-14 09:06:00,
2013-11-14 02:12:00,35.8,24.0,30.15,SE,139,8.0,9.0,62,0.00,,,0.00,0,Wunderground v.1.15,2013-11-14 09:12:00,
2013-11-14 02:18:00,35.7,23.6,30.15,SE,138,7.0,10.0,61,0.00,,,0.00,0,Wunderground v.1.15,2013-11-14 09:18:00,
2013-11-14 02:24:00,35.6,23.9,30.15,SE,130,6.0,7.0,62,0.00,,,0.00,0,Wunderground v.1.15,2013-11-14 09:24:00,
2013-11-14 02:30:00,35.3,23.6,30.15,SE,142,6.0,6.0,62,0.00,,,0.00,0,Wunderground v.1.15,2013-11-14 09:30:00,
2013-11-14 02:36:00,35.1,23.4,30.15,SE,137,5.0,6.0,62,0.00,,,0.00,0,Wunderground v.1.15,2013-11-14 09:36:00,
2013-11-14 02:42:00,34.8,23.1,30.15,SE,133,3.0,3.0,62,0.00,,,0.00,0,Wunderground v.1.15,2013-11-14 09:42:00,
2013-11-14 02:50:00,34.4,23.1,30.14,SE,127,3.0,3.0,63,0.00,,,0.00,0,Wunderground v.1.15,2013-11-14 09:50:00,
2013-11-14 02:56:00,34.1,22.8,30.14,SE,127,2.0,3.0,63,0.00,,,0.00,0,Wunderground v.1.15,2013-11-14 09:56:00,
2013-11-14 03:02:00,33.7,22.4,30.14,SE,127,1.0,1.0,63,0.00,,,0.00,0,Wunderground v.1.15,2013-11-14 10:02:00,
2013-11-14 03:08:00,33.3,22.8,30.14,SE,127,1.0,3.0,65,0.00,,,0.00,0,Wunderground v.1.15,2013-11-14 10:08:00,
2013-11-14 03:16:00,32.8,22.3,30.14,SE,127,0.0,1.0,65,0.00,,,0.00,0,Wunderground v.1.15,2013-11-14 10:16:00,
2013-11-14 03:24:00,32.2,22.1,30.14,SE,127,2.0,3.0,66,0.00,,,0.00,0,Wunderground v.1.15,2013-11-14 10:24:00,
2013-11-14 03:30:00,31.7,21.6,30.14,SE,127,1.0,1.0,66,0.00,,,0.00,0,Wunderground v.1.15,2013-11-14 10:30:00,
2013-11-14 03:36:00,31.4,21.7,30.14,SE,127,0.0,1.0,67,0.00,,,0.00,0,Wunderground v.1.15,2013-11-14 10:36:00,
2013-11-14 03:42:00,31.0,21.7,30.13,SE,127,0.0,0.0,68,0.00,,,0.00,0,Wunderground v.1.15,2013-11-14 10:42:00,
2013-11-14 03:48:00,30.6,21.6,30.13,SE,127,0.0,1.0,69,0.00,,,0.00,0,Wunderground v.1.15,2013-11-14 10:48:00,
2013-11-14 03:58:00,29.8,20.9,30.12,SE,127,1.0,2.0,69,0.00,,,0.00,0,Wunderground v.1.15,2013-11-14 10:58:00,
2013-11-14 04:06:00,29.1,20.5,30.12,SE,127,1.0,1.0,70,0.00,,,0.00,0,Wunderground v.1.15,2013-11-14 11:06:00,
2013-11-14 04:16:00,27.8,19.9,30.12,East,88,2.0,3.0,72,0.00,,,0.00,0,Wunderground v.1.15,2013-11-14 11:16:00,
2013-11-14 04:22:00,27.0,19.8,30.11,East,85,3.0,4.0,74,0.00,,,0.00,0,Wunderground v.1.15,2013-11-14 11:22:00,
2013-11-14 04:28:00,26.2,19.7,30.11,East,86,2.0,4.0,76,0.00,,,0.00,0,Wunderground v.1.15,2013-11-14 11:28:00,
2013-11-14 04:34:00,25.7,19.8,30.11,East,86,3.0,7.0,78,0.00,,,0.00,0,Wunderground v.1.15,2013-11-14 11:34:00,
2013-11-14 04:42:00,25.4,20.1,30.11,East,100,4.0,6.0,80,0.00,,,0.00,0,Wunderground v.1.15,2013-11-14 11:42:00,
2013-11-14 04:48:00,25.6,20.6,30.11,East,90,4.0,6.0,81,0.00,,,0.00,0,Wunderground v.1.15,2013-11-14 11:48:00,
2013-11-14 04:56:00,26.1,21.4,30.10,NE,44,5.0,6.0,82,0.00,,,0.00,0,Wunderground v.1.15,2013-11-14 11:56:00,
2013-11-14 05:02:00,26.7,21.7,30.10,East,86,4.0,5.0,81,0.00,,,0.00,0,Wunderground v.1.15,2013-11-14 12:02:00,
2013-11-14 05:08:00,27.2,22.1,30.10,NE,55,3.0,5.0,81,0.00,,,0.00,0,Wunderground v.1.15,2013-11-14 12:08:00,
2013-11-14 05:16:00,27.9,22.2,30.10,ENE,61,1.0,4.0,79,0.00,,,0.00,0,Wunderground v.1.15,2013-11-14 12:16:00,
2013-11-14 05:28:00,28.7,22.4,30.10,ENE,73,2.0,2.0,77,0.00,,,0.00,0,Wunderground v.1.15,2013-11-14 12:28:00,
2013-11-14 05:34:00,29.0,22.4,30.09,ENE,74,2.0,3.0,76,0.00,,,0.00,0,Wunderground v.1.15,2013-11-14 12:34:00,
2013-11-14 05:42:00,29.2,21.9,30.09,ESE,111,3.0,3.0,74,0.00,,,0.00,0,Wunderground v.1.15,2013-11-14 12:42:00,
2013-11-14 05:50:00,29.3,22.0,30.09,ENE,77,2.0,2.0,74,0.00,,,0.00,0,Wunderground v.1.15,2013-11-14 12:50:00,
2013-11-14 05:56:00,29.3,21.7,30.09,ENE,78,1.0,2.0,73,0.00,,,0.00,0,Wunderground v.1.15,2013-11-14 12:56:00,
2013-11-14 06:02:00,29.1,21.5,30.09,East,92,1.0,2.0,73,0.00,,,0.00,0,Wunderground v.1.15,2013-11-14 13:02:00,
2013-11-14 06:08:00,28.6,21.0,30.08,East,85,3.0,7.0,73,0.00,,,0.00,0,Wunderground v.1.15,2013-11-14 13:08:00,
2013-11-14 06:14:00,28.0,21.1,30.08,ENE,64,5.0,6.0,75,0.00,,,0.00,0,Wunderground v.1.15,2013-11-14 13:14:00,
2013-11-14 06:20:00,27.9,21.3,30.08,ENE,57,4.0,5.0,76,0.00,,,0.00,0,Wunderground v.1.15,2013-11-14 13:20:00,
2013-11-14 06:26:00,28.0,21.7,30.08,ENE,65,4.0,5.0,77,0.00,,,0.00,0,Wunderground v.1.15,2013-11-14 13:26:00,
2013-11-14 06:32:00,28.4,22.1,30.08,ENE,57,4.0,10.0,77,0.00,,,0.00,0,Wunderground v.1.15,2013-11-14 13:32:00,
2013-11-14 06:38:00,28.8,21.9,30.08,ENE,72,4.0,10.0,75,0.00,,,0.00,0,Wunderground v.1.15,2013-11-14 13:38:00,
2013-11-14 06:44:00,28.7,21.5,30.07,ENE,64,4.0,9.0,74,0.00,,,0.00,0,Wunderground v.1.15,2013-11-14 13:44:00,
2013-11-14 06:50:00,28.5,21.3,30.07,ENE,71,4.0,4.0,74,0.00,,,0.00,0,Wunderground v.1.15,2013-11-14 13:50:00,
2013-11-14 06:56:00,28.1,20.9,30.07,ESE,108,2.0,4.0,74,0.00,,,0.00,0,Wunderground v.1.15,2013-11-14 13:56:00,
2013-11-14 07:02:00,27.6,20.4,30.07,ESE,107,2.0,2.0,74,0.00,,,0.00,0,Wunderground v.1.15,2013-11-14 14:02:00,
2013-11-14 07:08:00,27.4,20.8,30.07,NE,46,2.0,9.0,76,0.00,,,0.00,0,Wunderground v.1.15,2013-11-14 14:08:00,
2013-11-14 07:14:00,27.6,21.3,30.07,NE,52,4.0,6.0,77,0.00,,,0.00,0,Wunderground v.1.15,2013-11-14 14:14:00,
2013-11-14 07:20:00,27.9,21.6,30.07,ENE,62,6.0,6.0,77,0.00,,,0.00,0,Wunderground v.1.15,2013-11-14 14:20:00,
2013-11-14 07:28:00,28.1,21.2,30.07,East,88,4.0,6.0,75,0.00,,,0.00,0,Wunderground v.1.15,2013-11-14 14:28:00,
2013-11-14 07:34:00,28.1,21.2,30.06,NE,42,4.0,5.0,75,0.00,,,0.00,0,Wunderground v.1.15,2013-11-14 14:34:00,
2013-11-14 07:40:00,28.6,22.0,30.06,ENE,60,4.0,4.0,76,0.00,,,0.00,5,Wunderground v.1.15,2013-11-14 14:40:00,
2013-11-14 07:46:00,29.3,22.0,30.06,ENE,70,4.0,5.0,74,0.00,,,0.00,11,Wunderground v.1.15,2013-11-14 14:46:00,
2013-11-14 07:54:00,29.5,21.6,30.06,ESE,120,3.0,5.0,72,0.00,,,0.00,21,Wunderground v.1.15,2013-11-14 14:54:00,
2013-11-14 08:00:00,29.2,21.3,30.06,East,90,3.0,4.0,72,0.00,,,0.00,26,Wunderground v.1.15,2013-11-14 15:00:00,
2013-11-14 08:02:00,29.1,21.2,30.06,ENE,78,3.0,4.0,72,0.00,,,0.00,28,Wunderground v.1.15,2013-11-14 15:02:00,
2013-11-14 08:08:00,28.7,21.1,30.06,East,96,4.0,4.0,73,0.00,,,0.00,35,Wunderground v.1.15,2013-11-14 15:08:00,
2013-11-14 08:16:00,28.6,21.4,30.05,NE,40,4.0,9.0,74,0.00,,,0.00,46,Wunderground v.1.15,2013-11-14 15:16:00,
2013-11-14 08:22:00,28.9,21.7,30.05,NE,39,7.0,8.0,74,0.00,,,0.00,54,Wunderground v.1.15,2013-11-14 15:22:00,
2013-11-14 08:30:00,29.5,21.9,30.05,NE,34,6.0,6.0,73,0.00,,,0.00,54,Wunderground v.1.15,2013-11-14 15:30:00,
2013-11-14 08:36:00,29.9,22.0,30.05,ESE,109,5.0,6.0,72,0.00,,,0.00,83,Wunderground v.1.15,2013-11-14 15:36:00,
2013-11-14 08:48:00,30.3,23.0,30.03,East,82,3.0,3.0,74,0.00,,,0.00,139,Wunderground v.1.15,2013-11-14 15:48:00,
2013-11-14 08:54:00,30.7,23.7,30.05,SE,128,2.0,5.0,75,0.00,,,0.00,114,Wunderground v.1.15,2013-11-14 15:54:00,
2013-11-14 09:04:00,31.1,23.5,30.03,East,86,3.0,3.0,73,0.00,,,0.00,95,Wunderground v.1.15,2013-11-14 16:04:00,
2013-11-14 09:10:00,31.3,23.6,30.03,NE,49,3.0,3.0,73,0.00,,,0.00,114,Wunderground v.1.15,2013-11-14 16:10:00,
2013-11-14 09:16:00,31.6,23.3,30.03,NE,42,6.0,6.0,71,0.00,,,0.00,121,Wunderground v.1.15,2013-11-14 16:16:00,
2013-11-14 09:24:00,32.0,23.7,30.02,NE,49,8.0,8.0,71,0.00,,,0.00,179,Wunderground v.1.15,2013-11-14 16:24:00,
2013-11-14 09:30:00,32.5,23.8,30.01,ENE,72,7.0,7.0,70,0.00,,,0.00,186,Wunderground v.1.15,2013-11-14 16:30:00,
2013-11-14 09:36:00,33.2,24.1,30.02,ENE,57,6.0,9.0,69,0.00,,,0.00,195,Wunderground v.1.15,2013-11-14 16:36:00,
2013-11-14 09:42:00,34.0,23.8,30.01,ENE,64,7.0,7.0,66,0.00,,,0.00,253,Wunderground v.1.15,2013-11-14 16:42:00,
2013-11-14 09:48:00,35.1,24.5,30.01,NE,54,7.0,13.0,65,0.00,,,0.00,338,Wunderground v.1.15,2013-11-14 16:48:00,
2013-11-14 09:54:00,36.6,24.4,30.01,ENE,69,8.0,11.0,61,0.00,,,0.00,348,Wunderground v.1.15,2013-11-14 16:54:00,
2013-11-14 10:00:00,38.0,24.1,30.00,NNE,22,8.0,8.0,57,0.00,,,0.00,292,Wunderground v.1.15,2013-11-14 17:00:00,
2013-11-14 10:08:00,39.1,23.8,30.00,ENE,68,6.0,8.0,54,0.00,,,0.00,234,Wunderground v.1.15,2013-11-14 17:08:00,
2013-11-14 10:14:00,39.7,24.4,30.00,ENE,63,6.0,6.0,54,0.00,,,0.00,265,Wunderground v.1.15,2013-11-14 17:14:00,
2013-11-14 10:20:00,39.8,24.5,30.00,ENE,67,6.0,6.0,54,0.00,,,0.00,223,Wunderground v.1.15,2013-11-14 17:20:00,
2013-11-14 10:26:00,40.1,24.3,30.00,ENE,73,7.0,9.0,53,0.00,,,0.00,199,Wunderground v.1.15,2013-11-14 17:26:00,
2013-11-14 10:32:00,40.0,24.2,30.00,NE,49,8.0,10.0,53,0.00,,,0.00,434,Wunderground v.1.15,2013-11-14 17:32:00,
2013-11-14 10:38:00,40.3,24.1,29.99,East,79,8.0,10.0,52,0.00,,,0.00,207,Wunderground v.1.15,2013-11-14 17:38:00,
2013-11-14 10:44:00,40.6,23.9,29.99,ENE,70,6.0,9.0,51,0.00,,,0.00,172,Wunderground v.1.15,2013-11-14 17:44:00,
2013-11-14 10:50:00,40.6,23.4,29.99,East,80,5.0,5.0,50,0.00,,,0.00,183,Wunderground v.1.15,2013-11-14 17:50:00,
2013-11-14 10:56:00,40.6,23.4,29.98,ENE,58,5.0,6.0,50,0.00,,,0.00,216,Wunderground v.1.15,2013-11-14 17:56:00,
2013-11-14 11:02:00,40.6,23.9,29.98,ENE,66,5.0,6.0,51,0.00,,,0.00,267,Wunderground v.1.15,2013-11-14 18:02:00,
2013-11-14 11:08:00,41.0,23.8,29.98,East,82,6.0,7.0,50,0.00,,,0.00,330,Wunderground v.1.15,2013-11-14 18:08:00,
2013-11-14 11:14:00,41.5,23.7,29.98,East,83,7.0,12.0,49,0.00,,,0.00,318,Wunderground v.1.15,2013-11-14 18:14:00,
2013-11-14 11:20:00,41.8,23.0,29.98,East,92,8.0,8.0,47,0.00,,,0.00,251,Wunderground v.1.15,2013-11-14 18:20:00,
2013-11-14 11:26:00,42.0,22.7,29.97,East,92,7.0,9.0,46,0.00,,,0.00,320,Wunderground v.1.15,2013-11-14 18:26:00,
2013-11-14 11:32:00,42.2,22.9,29.97,East,80,6.0,6.0,46,0.00,,,0.00,276,Wunderground v.1.15,2013-11-14 18:32:00,
2013-11-14 11:38:00,42.5,24.2,29.97,ENE,71,5.0,7.0,48,0.00,,,0.00,510,Wunderground v.1.15,2013-11-14 18:38:00,
2013-11-14 11:44:00,43.2,22.7,29.96,East,82,5.0,7.0,44,0.00,,,0.00,390,Wunderground v.1.15,2013-11-14 18:44:00,
2013-11-14 11:50:00,43.9,23.4,29.95,East,93,5.0,5.0,44,0.00,,,0.00,489,Wunderground v.1.15,2013-11-14 18:50:00,
2013-11-14 11:56:00,45.0,26.5,29.95,South,169,5.0,10.0,48,0.00,,,0.00,504,Wunderground v.1.15,2013-11-14 18:56:00,
2013-11-14 12:02:00,45.6,26.0,29.94,WSW,241,4.0,7.0,46,0.00,,,0.00,404,Wunderground v.1.15,2013-11-14 19:02:00,
2013-11-14 12:08:00,45.8,26.7,29.94,West,261,4.0,11.0,47,0.00,,,0.00,360,Wunderground v.1.15,2013-11-14 19:08:00,
2013-11-14 12:14:00,45.4,26.3,29.94,West,272,6.0,6.0,47,0.00,,,0.00,348,Wunderground v.1.15,2013-11-14 19:14:00,
2013-11-14 12:20:00,44.5,26.5,29.93,WNW,286,6.0,6.0,49,0.00,,,0.00,410,Wunderground v.1.15,2013-11-14 19:20:00,
2013-11-14 12:26:00,43.7,26.3,29.93,West,281,6.0,9.0,50,0.00,,,0.00,454,Wunderground v.1.15,2013-11-14 19:26:00,
2013-11-14 12:32:00,43.3,26.4,29.93,West,269,6.0,7.0,51,0.00,,,0.00,353,Wunderground v.1.15,2013-11-14 19:32:00,
2013-11-14 12:38:00,43.0,26.1,29.93,West,276,6.0,8.0,51,0.00,,,0.00,350,Wunderground v.1.15,2013-11-14 19:38:00,
2013-11-14 12:44:00,42.8,26.4,29.93,West,270,6.0,6.0,52,0.00,,,0.00,373,Wunderground v.1.15,2013-11-14 19:44:00,
2013-11-14 12:50:00,42.7,25.8,29.92,West,270,6.0,6.0,51,0.00,,,0.00,388,Wunderground v.1.15,2013-11-14 19:50:00,
2013-11-14 12:56:00,42.6,26.2,29.92,West,277,6.0,8.0,52,0.00,,,0.00,462,Wunderground v.1.15,2013-11-14 19:56:00,
2013-11-14 13:02:00,42.8,25.9,29.92,West,272,5.0,6.0,51,0.00,,,0.00,487,Wunderground v.1.15,2013-11-14 20:02:00,
2013-11-14 13:08:00,42.9,25.5,29.91,WNW,285,5.0,6.0,50,0.00,,,0.00,396,Wunderground v.1.15,2013-11-14 20:08:00,
2013-11-14 13:14:00,43.1,25.7,29.91,West,281,5.0,7.0,50,0.00,,,0.00,445,Wunderground v.1.15,2013-11-14 20:14:00,
2013-11-14 13:20:00,43.3,26.4,29.90,WNW,286,4.0,6.0,51,0.00,,,0.00,332,Wunderground v.1.15,2013-11-14 20:20:00,
2013-11-14 13:26:00,43.6,25.7,29.89,WNW,284,4.0,6.0,49,0.00,,,0.00,350,Wunderground v.1.15,2013-11-14 20:26:00,
2013-11-14 13:32:00,43.7,25.3,29.90,West,271,5.0,5.0,48,0.00,,,0.00,387,Wunderground v.1.15,2013-11-14 20:32:00,
2013-11-14 13:38:00,43.8,25.4,29.89,WNW,288,5.0,6.0,48,0.00,,,0.00,371,Wunderground v.1.15,2013-11-14 20:38:00,
2013-11-14 13:44:00,43.8,25.9,29.88,West,276,5.0,7.0,49,0.00,,,0.00,415,Wunderground v.1.15,2013-11-14 20:44:00,
2013-11-14 13:50:00,43.7,25.3,29.88,West,261,6.0,6.0,48,0.00,,,0.00,323,Wunderground v.1.15,2013-11-14 20:50:00,
2013-11-14 13:56:00,43.6,24.7,29.88,West,259,5.0,6.0,47,0.00,,,0.00,206,Wunderground v.1.15,2013-11-14 20:56:00,
2013-11-14 14:02:00,43.4,24.5,29.88,West,274,5.0,6.0,47,0.00,,,0.00,271,Wunderground v.1.15,2013-11-14 21:02:00,
2013-11-14 14:08:00,43.2,24.3,29.88,West,273,3.0,6.0,47,0.00,,,0.00,209,Wunderground v.1.15,2013-11-14 21:08:00,
2013-11-14 14:14:00,43.0,24.6,29.87,West,273,3.0,5.0,48,0.00,,,0.00,185,Wunderground v.1.15,2013-11-14 21:14:00,
2013-11-14 14:20:00,42.8,24.4,29.87,West,275,3.0,5.0,48,0.00,,,0.00,225,Wunderground v.1.15,2013-11-14 21:20:00,
2013-11-14 14:26:00,42.6,25.7,29.87,West,260,4.0,7.0,51,0.00,,,0.00,258,Wunderground v.1.15,2013-11-14 21:26:00,
2013-11-14 14:32:00,42.7,25.8,29.87,West,273,4.0,5.0,51,0.00,,,0.00,332,Wunderground v.1.15,2013-11-14 21:32:00,
2013-11-14 14:38:00,42.9,26.0,29.86,West,259,5.0,7.0,51,0.00,,,0.00,265,Wunderground v.1.15,2013-11-14 21:38:00,
2013-11-14 14:44:00,43.2,25.3,29.86,West,259,5.0,7.0,49,0.00,,,0.00,185,Wunderground v.1.15,2013-11-14 21:44:00,
2013-11-14 14:50:00,43.1,25.2,29.86,West,263,4.0,6.0,49,0.00,,,0.00,190,Wunderground v.1.15,2013-11-14 21:50:00,
2013-11-14 14:56:00,42.9,25.0,29.85,West,269,5.0,6.0,49,0.00,,,0.00,244,Wunderground v.1.15,2013-11-14 21:56:00,
2013-11-14 15:02:00,42.7,24.8,29.85,West,273,5.0,9.0,49,0.00,,,0.00,174,Wunderground v.1.15,2013-11-14 22:02:00,
2013-11-14 15:08:00,42.6,25.2,29.85,West,261,5.0,9.0,50,0.00,,,0.00,281,Wunderground v.1.15,2013-11-14 22:08:00,
2013-11-14 15:14:00,42.7,25.3,29.85,West,278,5.0,6.0,50,0.00,,,0.00,272,Wunderground v.1.15,2013-11-14 22:14:00,
2013-11-14 15:20:00,42.9,25.5,29.85,WSW,250,6.0,9.0,50,0.00,,,0.00,234,Wunderground v.1.15,2013-11-14 22:20:00,
2013-11-14 15:26:00,42.9,25.0,29.86,WSW,257,7.0,10.0,49,0.00,,,0.00,137,Wunderground v.1.15,2013-11-14 22:26:00,
2013-11-14 15:32:00,42.6,24.3,29.86,WSW,246,5.0,6.0,48,0.00,,,0.00,86,Wunderground v.1.15,2013-11-14 22:32:00,
2013-11-14 15:38:00,42.3,24.5,29.86,WSW,252,3.0,6.0,49,0.00,,,0.00,156,Wunderground v.1.15,2013-11-14 22:38:00,
2013-11-14 15:44:00,41.8,24.0,29.86,WSW,252,4.0,5.0,49,0.00,,,0.00,111,Wunderground v.1.15,2013-11-14 22:44:00,
2013-11-14 15:50:00,41.5,24.2,29.86,WSW,249,4.0,4.0,50,0.00,,,0.00,107,Wunderground v.1.15,2013-11-14 22:50:00,
2013-11-14 15:56:00,41.1,24.3,29.85,WSW,257,4.0,6.0,51,0.00,,,0.00,88,Wunderground v.1.15,2013-11-14 22:56:00,
2013-11-14 16:02:00,40.7,24.4,29.85,WSW,258,4.0,5.0,52,0.00,,,0.00,69,Wunderground v.1.15,2013-11-14 23:02:00,
2013-11-14 16:08:00,40.4,24.6,29.86,WSW,258,3.0,5.0,53,0.00,,,0.00,54,Wunderground v.1.15,2013-11-14 23:08:00,
2013-11-14 16:14:00,40.1,24.3,29.86,WSW,258,3.0,4.0,53,0.00,,,0.00,44,Wunderground v.1.15,2013-11-14 23:14:00,
2013-11-14 16:20:00,39.8,24.0,29.86,WSW,258,1.0,1.0,53,0.00,,,0.00,39,Wunderground v.1.15,2013-11-14 23:20:00,
2013-11-14 16:26:00,39.5,23.8,29.86,WSW,258,1.0,2.0,53,0.00,,,0.00,28,Wunderground v.1.15,2013-11-14 23:26:00,
2013-11-14 16:32:00,39.1,23.8,29.86,WSW,258,1.0,1.0,54,0.00,,,0.00,21,Wunderground v.1.15,2013-11-14 23:32:00,
2013-11-14 16:38:00,38.7,23.9,29.86,WSW,258,0.0,1.0,55,0.00,,,0.00,12,Wunderground v.1.15,2013-11-14 23:38:00,
2013-11-14 16:44:00,38.5,24.1,29.85,WSW,258,0.0,0.0,56,0.00,,,0.00,7,Wunderground v.1.15,2013-11-14 23:44:00,
2013-11-14 16:50:00,38.1,23.8,29.85,WSW,258,0.0,0.0,56,0.00,,,0.00,5,Wunderground v.1.15,2013-11-14 23:50:00,
2013-11-14 16:56:00,37.8,23.9,29.85,WSW,258,0.0,0.0,57,0.00,,,0.00,0,Wunderground v.1.15,2013-11-14 23:56:00,
2013-11-14 17:02:00,37.4,24.0,29.85,WSW,258,0.0,0.0,58,0.00,,,0.00,0,Wunderground v.1.15,2013-11-15 00:02:00,
2013-11-14 17:08:00,37.0,24.0,29.85,WSW,258,0.0,0.0,59,0.00,,,0.00,0,Wunderground v.1.15,2013-11-15 00:08:00,
2013-11-14 17:14:00,36.6,24.0,29.85,WSW,258,0.0,0.0,60,0.00,,,0.00,0,Wunderground v.1.15,2013-11-15 00:14:00,
2013-11-14 17:20:00,36.2,23.6,29.85,WSW,258,0.0,0.0,60,0.00,,,0.00,0,Wunderground v.1.15,2013-11-15 00:20:00,
2013-11-14 17:26:00,35.8,24.0,29.85,WSW,258,0.0,0.0,62,0.00,,,0.00,0,Wunderground v.1.15,2013-11-15 00:26:00,
2013-11-14 17:32:00,35.4,23.3,29.85,WSW,258,0.0,0.0,61,0.00,,,0.00,0,Wunderground v.1.15,2013-11-15 00:32:00,
2013-11-14 17:38:00,35.0,23.7,29.86,WSW,258,0.0,0.0,63,0.00,,,0.00,0,Wunderground v.1.15,2013-11-15 00:38:00,
2013-11-14 17:44:00,34.4,23.5,29.86,WSW,258,0.0,0.0,64,0.00,,,0.00,0,Wunderground v.1.15,2013-11-15 00:44:00,
2013-11-14 17:50:00,34.0,22.7,29.86,WSW,258,0.0,0.0,63,0.00,,,0.00,0,Wunderground v.1.15,2013-11-15 00:50:00,
2013-11-14 17:56:00,33.7,22.8,29.86,WSW,258,0.0,0.0,64,0.00,,,0.00,0,Wunderground v.1.15,2013-11-15 00:56:00,
2013-11-14 18:02:00,33.4,23.3,29.86,WSW,258,0.0,0.0,66,0.00,,,0.00,0,Wunderground v.1.15,2013-11-15 01:02:00,
2013-11-14 18:08:00,33.1,22.2,29.86,WSW,258,0.0,0.0,64,0.00,,,0.00,0,Wunderground v.1.15,2013-11-15 01:08:00,
2013-11-14 18:14:00,32.9,22.4,29.86,WSW,258,0.0,0.0,65,0.00,,,0.00,0,Wunderground v.1.15,2013-11-15 01:14:00,
2013-11-14 18:20:00,32.6,22.5,29.86,WSW,258,0.0,0.0,66,0.00,,,0.00,0,Wunderground v.1.15,2013-11-15 01:20:00,
2013-11-14 18:26:00,32.2,21.7,29.86,WSW,258,0.0,0.0,65,0.00,,,0.00,0,Wunderground v.1.15,2013-11-15 01:26:00,
2013-11-14 18:34:00,31.5,22.1,29.86,WSW,258,0.0,0.0,68,0.00,,,0.00,0,Wunderground v.1.15,2013-11-15 01:34:00,
2013-11-14 18:40:00,30.9,20.9,29.86,WSW,258,0.0,0.0,66,0.00,,,0.00,0,Wunderground v.1.15,2013-11-15 01:40:00,
2013-11-14 18:46:00,30.6,21.6,29.86,WSW,258,0.0,0.0,69,0.00,,,0.00,0,Wunderground v.1.15,2013-11-15 01:46:00,
2013-11-14 18:52:00,30.1,21.2,29.86,WSW,258,0.0,0.0,69,0.00,,,0.00,0,Wunderground v.1.15,2013-11-15 01:52:00,
2013-11-14 18:58:00,29.8,20.2,29.86,WSW,258,0.0,0.0,67,0.00,,,0.00,0,Wunderground v.1.15,2013-11-15 01:58:00,
2013-11-14 19:04:00,29.4,20.5,29.85,WSW,258,0.0,0.0,69,0.00,,,0.00,0,Wunderground v.1.15,2013-11-15 02:04:00,
2013-11-14 19:10:00,28.9,20.0,29.85,WSW,258,0.0,0.0,69,0.00,,,0.00,0,Wunderground v.1.15,2013-11-15 02:10:00,
2013-11-14 19:16:00,28.4,19.9,29.85,WSW,258,0.0,0.0,70,0.00,,,0.00,0,Wunderground v.1.15,2013-11-15 02:16:00,
2013-11-14 19:22:00,27.8,19.3,29.85,WSW,258,0.0,0.0,70,0.00,,,0.00,0,Wunderground v.1.15,2013-11-15 02:22:00,
2013-11-14 19:28:00,27.4,20.2,29.85,WSW,258,0.0,0.0,74,0.00,,,0.00,0,Wunderground v.1.15,2013-11-15 02:28:00,
2013-11-14 19:34:00,27.0,20.4,29.85,WSW,258,0.0,0.0,76,0.00,,,0.00,0,Wunderground v.1.15,2013-11-15 02:34:00,
2013-11-14 19:40:00,26.6,18.8,29.85,WSW,258,0.0,0.0,72,0.00,,,0.00,0,Wunderground v.1.15,2013-11-15 02:40:00,
2013-11-14 19:46:00,26.3,19.1,29.85,WSW,258,0.0,0.0,74,0.00,,,0.00,0,Wunderground v.1.15,2013-11-15 02:46:00,
2013-11-14 19:52:00,25.9,18.1,29.85,WSW,258,0.0,0.0,72,0.00,,,0.00,0,Wunderground v.1.15,2013-11-15 02:52:00,
2013-11-14 19:58:00,25.4,17.9,29.86,WSW,248,1.0,4.0,73,0.00,,,0.00,0,Wunderground v.1.15,2013-11-15 02:58:00,
2013-11-14 20:04:00,24.9,18.4,29.85,SE,139,1.0,4.0,76,0.00,,,0.00,0,Wunderground v.1.15,2013-11-15 03:04:00,
2013-11-14 20:10:00,24.5,18.9,29.84,NNE,30,1.0,3.0,79,0.00,,,0.00,0,Wunderground v.1.15,2013-11-15 03:10:00,
2013-11-14 20:16:00,23.9,18.0,29.85,South,170,2.0,3.0,78,0.00,,,0.00,0,Wunderground v.1.15,2013-11-15 03:16:00,
2013-11-14 20:22:00,23.8,18.8,29.85,South,169,1.0,2.0,81,0.00,,,0.00,0,Wunderground v.1.15,2013-11-15 03:22:00,
2013-11-14 20:28:00,23.8,18.8,29.85,South,169,0.0,2.0,81,0.00,,,0.00,0,Wunderground v.1.15,2013-11-15 03:28:00,
2013-11-14 20:34:00,23.7,19.0,29.85,South,169,0.0,0.0,82,0.00,,,0.00,0,Wunderground v.1.15,2013-11-15 03:34:00,
2013-11-14 20:40:00,23.9,19.2,29.84,South,169,1.0,1.0,82,0.00,,,0.00,0,Wunderground v.1.15,2013-11-15 03:40:00,
2013-11-14 20:46:00,23.9,19.2,29.84,South,169,1.0,3.0,82,0.00,,,0.00,0,Wunderground v.1.15,2013-11-15 03:46:00,
2013-11-14 20:52:00,23.8,19.1,29.84,South,169,1.0,1.0,82,0.00,,,0.00,0,Wunderground v.1.15,2013-11-15 03:52:00,
2013-11-14 20:58:00,23.7,19.0,29.84,SSE,167,0.0,1.0,82,0.00,,,0.00,0,Wunderground v.1.15,2013-11-15 03:58:00,
2013-11-14 21:04:00,23.8,19.4,29.84,SE,145,2.0,5.0,83,0.00,,,0.00,0,Wunderground v.1.15,2013-11-15 04:04:00,
2013-11-14 21:10:00,23.6,18.9,29.85,SE,144,2.0,2.0,82,0.00,,,0.00,0,Wunderground v.1.15,2013-11-15 04:10:00,
2013-11-14 21:16:00,23.6,18.9,29.85,SE,144,0.0,2.0,82,0.00,,,0.00,0,Wunderground v.1.15,2013-11-15 04:16:00,
2013-11-14 21:22:00,23.4,18.7,29.85,SE,144,0.0,4.0,82,0.00,,,0.00,0,Wunderground v.1.15,2013-11-15 04:22:00,
2013-11-14 21:28:00,23.5,19.4,29.85,SE,144,0.0,4.0,84,0.00,,,0.00,0,Wunderground v.1.15,2013-11-15 04:28:00,
2013-11-14 21:34:00,23.6,19.5,29.85,SE,144,0.0,2.0,84,0.00,,,0.00,0,Wunderground v.1.15,2013-11-15 04:34:00,
2013-11-14 21:40:00,23.7,19.6,29.84,SE,144,0.0,0.0,84,0.00,,,0.00,0,Wunderground v.1.15,2013-11-15 04:40:00,
2013-11-14 21:46:00,23.7,19.6,29.84,SE,143,1.0,4.0,84,0.00,,,0.00,0,Wunderground v.1.15,2013-11-15 04:46:00,
2013-11-14 21:52:00,23.7,19.3,29.83,SE,143,2.0,3.0,83,0.00,,,0.00,0,Wunderground v.1.15,2013-11-15 04:52:00,
2013-11-14 21:58:00,23.8,19.4,29.83,SE,144,2.0,3.0,83,0.00,,,0.00,0,Wunderground v.1.15,2013-11-15 04:58:00,
2013-11-14 22:02:00,23.8,19.7,29.83,SE,143,3.0,3.0,84,0.00,,,0.00,0,Wunderground v.1.15,2013-11-15 05:02:00,
2013-11-14 22:04:00,23.8,19.4,29.83,SE,143,2.0,3.0,83,0.00,,,0.00,0,Wunderground v.1.15,2013-11-15 05:04:00,
2013-11-14 22:06:00,23.8,19.4,29.83,SE,143,2.0,3.0,83,0.00,,,0.00,0,Wunderground v.1.15,2013-11-15 05:06:00,
2013-11-14 22:12:00,23.8,19.4,29.83,SE,143,1.0,2.0,83,0.00,,,0.00,0,Wunderground v.1.15,2013-11-15 05:12:00,
2013-11-14 22:16:00,23.7,19.3,29.83,SE,143,0.0,2.0,83,0.00,,,0.00,0,Wunderground v.1.15,2013-11-15 05:16:00,
2013-11-14 22:22:00,23.5,18.2,29.83,SE,143,0.0,0.0,80,0.00,,,0.00,0,Wunderground v.1.15,2013-11-15 05:22:00,
2013-11-14 22:28:00,23.1,17.6,29.84,East,79,0.0,5.0,79,0.00,,,0.00,0,Wunderground v.1.15,2013-11-15 05:28:00,
2013-11-14 22:34:00,22.4,17.2,29.84,ENE,74,2.0,4.0,80,0.00,,,0.00,0,Wunderground v.1.15,2013-11-15 05:34:00,
2013-11-14 22:40:00,21.9,17.2,29.83,East,84,2.0,2.0,82,0.00,,,0.00,0,Wunderground v.1.15,2013-11-15 05:40:00,
2013-11-14 22:42:00,21.8,17.2,29.83,East,84,2.0,2.0,82,0.00,,,0.00,0,Wunderground v.1.15,2013-11-15 05:42:00,
2013-11-14 22:48:00,21.8,18.0,29.83,East,80,1.0,3.0,85,0.00,,,0.00,0,Wunderground v.1.15,2013-11-15 05:48:00,
2013-11-14 22:54:00,22.2,18.7,29.83,East,88,0.0,2.0,86,0.00,,,0.00,0,Wunderground v.1.15,2013-11-15 05:54:00,
2013-11-14 23:00:00,22.3,18.7,29.83,East,90,0.0,0.0,86,0.00,,,0.00,0,Wunderground v.1.15,2013-11-15 06:00:00,
2013-11-14 23:08:00,22.4,18.8,29.84,East,91,0.0,0.0,86,0.00,,,0.00,0,Wunderground v.1.15,2013-11-15 06:08:00,
2013-11-14 23:14:00,22.6,19.0,29.84,East,90,1.0,3.0,86,0.00,,,0.00,0,Wunderground v.1.15,2013-11-15 06:14:00,
2013-11-14 23:20:00,22.8,19.2,29.84,East,100,2.0,2.0,86,0.00,,,0.00,0,Wunderground v.1.15,2013-11-15 06:20:00,
2013-11-14 23:26:00,23.2,19.6,29.84,SE,146,3.0,5.0,86,0.00,,,0.00,0,Wunderground v.1.15,2013-11-15 06:26:00,
2013-11-14 23:32:00,23.4,19.8,29.84,SE,131,2.0,4.0,86,0.00,,,0.00,0,Wunderground v.1.15,2013-11-15 06:32:00,
2013-11-14 23:38:00,23.9,20.6,29.83,ESE,110,2.0,4.0,87,0.00,,,0.00,0,Wunderground v.1.15,2013-11-15 06:38:00,
2013-11-14 23:44:00,24.3,21.0,29.83,ESE,105,2.0,4.0,87,0.00,,,0.00,0,Wunderground v.1.15,2013-11-15 06:44:00,
2013-11-14 23:50:00,24.7,21.1,29.83,SE,125,2.0,6.0,86,0.00,,,0.00,0,Wunderground v.1.15,2013-11-15 06:50:00,
2013-11-14 23:56:00,25.1,21.2,29.83,ESE,117,2.0,6.0,85,0.00,,,0.00,0,Wunderground v.1.15,2013-11-15 06:56:00,